Location: Bijele Vode
(45.2833°N, 16.2000°E)
Time: 08:57:35
(UTC+00:00)

Nauka - Pass Details

Date: 02 October 2021
Orbit: 418 x 423 km, 51.6° (Epoch: 18 October)

Event Time Altitude Azimuth Distance (km) Brightness Sun altitude
Rises 17:29:29 0° 299° (WNW) 2,366 ? -10.7°
Reaches altitude 10° 17:31:36 10° 303° (WNW) 1,501 ? -11.0°
Maximum altitude 17:34:56 59° 25° (NNE) 487 ? -11.6°
Enters shadow 17:37:03 20° 100° (E) 1,021 ? -12.0°
